Location: Monteux
(44.0348°N, 4.9972°E)
Time: 16:55:26
(UTC+00:00)

Cosmos 389 Rocket - Pass Details

Date: 30 November 2020
Orbit: 442 x 473 km, 81.1° (Epoch: 22 January)

Event Time Altitude Azimuth Distance (km) Brightness Sun altitude
Rises 16:33:53 0° 187° (S) 2,428 6.6 -5.7°
Reaches altitude 10° 16:35:56 10° 186° (S) 1,560 5.6 -6.0°
Maximum altitude 16:39:20 82° 99° (E) 453 2.3 -6.6°
Drops below altitude 10° 16:42:45 10° 12° (NNE) 1,571 4.8 -7.1°
Sets 16:44:50 0° 12° (NNE) 2,447 5.8 -7.5°
